Location: Holton (historical)
(33.9472°N, 118.4440°W)
Time: 18:37:20
(UTC+00:00)

CZ-3C R/B - Pass Details

Date: 03 August 2024
Orbit: 268 x 32380 km, 20.5° (Epoch: 11 September)

Event Time Altitude Azimuth Distance (km) Brightness Sun altitude
Exits shadow 11:20:30 24° 205° (SSW) 2,779 3.8 -20.0°
Maximum altitude 11:26:03 43° 149° (SSE) 3,529 4.7 -19.1°
Drops below altitude 10° 19:20:35 10° 132° (SE) 20,857 9.2 71.1°
Sets 19:42:20 0° 129° (SE) 17,526 8.6 72.8°
